Fayetteville, NC

10:43 AM EDT on September 27, 2016 (GMT -0400)
Fayetteville Regional-Grannis

Weather History for KFAY - February, 2014

Change the Weather History Date:

Monday, February 17, 2014

  Actual Average Record
Temperature  
Mean Temperature 39 °F 48 °F  
Max Temperature 48 °F 60 °F 81 °F (1945)
Min Temperature 29 °F 36 °F 10 °F (1958)
Degree Days  
Heating Degree Days 26 17  
Month to date heating degree days 382 320  
Since 1 July heating degree days 2173 2046  
Cooling Degree Days 0 0  
Month to date cooling degree days 0 0  
Year to date cooling degree days 0 2  
Moisture  
Dew Point 25 °F    
Average Humidity 61    
Maximum Humidity 85    
Minimum Humidity 37    
Precipitation  
Precipitation 0.00 in 0.12 in 2.43 in (1998)
Month to date precipitation 1.58 1.64  
Year to date precipitation 5.64 4.94  
Sea Level Pressure  
Sea Level Pressure 30.27 in    
Wind  
Wind Speed 9 mph (ENE)    
Max Wind Speed 20 mph    
Max Gust Speed 27 mph    
Visibility 10 miles    
Events      
T = Trace of Precipitation, MM = Missing Value Source: NWS Daily Summary

Daily Weather History Graph

Daily Weather History Graph

Search for Another Location

Airport or City:

Trip Planner

Search our weather history database for the weather conditions in past years. The results will help you decide how hot, cold, wet, or windy it might be!

Date:

Astronomy

Feb. 17, 2014 Rise Set
Actual Time 6:59 AM EST 6:00 PM EST
Civil Twilight 6:33 AM EST 6:26 PM EST
Nautical Twilight 6:03 AM EST 6:55 PM EST
Astronomical Twilight 5:34 AM EST 7:25 PM EST
Moon 8:44 PM EST (2/17) 8:06 AM EST (2/17)
Length of Visible Light 11h 52m
Length of Day
11h 00m
Waning Gibbous, 93% of the Moon is Illuminated
Feb 17
Waning Gibbous
Feb 22
Last Quarter
Mar 1
New
Mar 8
First Quarter
Mar 16
Full

Hourly Weather History & Observations

Time (EST) Temp. Windchill Dew Point Humidity Pressure Visibility Wind Dir Wind Speed Gust Speed Precip Events Conditions
12:53 AM 36.0 °F 32.1 °F 27.0 °F 70% 30.15 in 10.0 mi North 4.6 mph - N/A   Clear
1:53 AM 32.0 °F 24.2 °F 26.1 °F 79% 30.18 in 10.0 mi North 9.2 mph - N/A   Clear
2:53 AM 32.0 °F 24.8 °F 26.1 °F 79% 30.20 in 10.0 mi NNE 8.1 mph - N/A   Clear
3:53 AM 32.0 °F 25.6 °F 25.0 °F 75% 30.22 in 10.0 mi NNE 6.9 mph - N/A   Clear
4:53 AM 30.9 °F 24.3 °F 26.1 °F 82% 30.24 in 10.0 mi NNE 6.9 mph - N/A   Clear
5:53 AM 30.9 °F 23.5 °F 24.1 °F 76% 30.27 in 10.0 mi NNE 8.1 mph - N/A   Clear
6:53 AM 30.0 °F 21.7 °F 23.0 °F 75% 30.28 in 10.0 mi NNE 9.2 mph - N/A   Clear
7:53 AM 35.1 °F 28.6 °F 25.0 °F 67% 30.32 in 10.0 mi NE 8.1 mph - N/A   Clear
8:53 AM 37.0 °F 29.8 °F 25.0 °F 62% 30.36 in 10.0 mi NE 10.4 mph 17.3 mph N/A   Clear
9:53 AM 39.0 °F 31.0 °F 21.9 °F 50% 30.36 in 10.0 mi ENE 13.8 mph 21.9 mph N/A   Clear
10:53 AM 42.1 °F 36.1 °F 21.9 °F 45% 30.37 in 10.0 mi East 10.4 mph 19.6 mph N/A   Clear
11:53 AM 43.0 °F 37.7 °F 21.9 °F 43% 30.35 in 10.0 mi ENE 9.2 mph - N/A   Clear
12:53 PM 45.0 °F 40.6 °F 21.9 °F 40% 30.32 in 10.0 mi ENE 8.1 mph - N/A   Clear
1:53 PM 46.9 °F - 21.9 °F 37% 30.30 in 10.0 mi ENE 9.2 mph - N/A   Clear
2:53 PM 46.9 °F - 21.9 °F 37% 30.29 in 10.0 mi East 9.2 mph - N/A   Clear
3:53 PM 46.9 °F - 24.1 °F 41% 30.27 in 10.0 mi ENE 8.1 mph - N/A   Clear
4:53 PM 46.9 °F - 24.1 °F 41% 30.26 in 10.0 mi East 5.8 mph - N/A   Clear
5:53 PM 44.1 °F 41.5 °F 25.0 °F 47% 30.27 in 10.0 mi ENE 4.6 mph - N/A   Clear
6:53 PM 41.0 °F 37.1 °F 26.1 °F 55% 30.26 in 10.0 mi NE 5.8 mph - N/A   Mostly Cloudy
7:53 PM 41.0 °F 37.1 °F 25.0 °F 53% 30.27 in 10.0 mi ENE 5.8 mph - N/A   Mostly Cloudy
8:40 PM 42.1 °F 40.2 °F 26.1 °F 53% 30.28 in 10.0 mi ENE 3.5 mph - N/A   Overcast
8:53 PM 43.0 °F 38.8 °F 28.0 °F 56% 30.27 in 10.0 mi East 6.9 mph - N/A   Overcast
9:53 PM 43.0 °F 35.4 °F 28.9 °F 58% 30.23 in 10.0 mi SE 16.1 mph - N/A   Overcast
10:53 PM 42.1 °F 34.5 °F 28.0 °F 58% 30.20 in 10.0 mi ESE 15.0 mph 19.6 mph N/A   Overcast
11:53 PM 42.1 °F 37.7 °F 27.0 °F 55% 30.18 in 10.0 mi ESE 6.9 mph - N/A   Overcast